When you browse on this site, cookies collect data to enhance your experience and personalize the content and advertising you see.
Visit our Privacy Policy to learn more. By continuing to use the site, you agree to this use of cookies and data.
  • In United Kingdom
  • List of Countries
  • For 7 days
  • Water Temperature
  • Weather Map
  • Weather Widgets
  • user-avatar
    Login

    Hourly Weather Montichiari

    Today, 20 October, Sunday

    Time Temperature Precipitation Wind Pressure Humidity
    00:00 +16°C° 0 mm 2 mps 753 mmHg 87%
    01:00 +16°C° 0 mm 1 mps 753 mmHg 93%
    02:00 +16°C° 0.2 mm 2 mps 753 mmHg 93%
    03:00 +16°C° 0.2 mm 2 mps 752 mmHg 93%
    04:00 +16°C° 0.2 mm 2 mps 752 mmHg 93%
    05:00 +16°C° 0 mm 2 mps 753 mmHg 93%
    06:00 +16°C° 0 mm 2 mps 753 mmHg 93%
    07:00 +16°C° 0 mm 2 mps 753 mmHg 93%
    08:00 +17°C° 0 mm 2 mps 753 mmHg 88%
    09:00 +18°C° 0 mm 2 mps 754 mmHg 83%
    10:00 +20°C° 0 mm 3 mps 754 mmHg 78%
    11:00 +21°C° 0 mm 3 mps 754 mmHg 73%
    12:00 +21°C° 0 mm 3 mps 754 mmHg 68%
    13:00 +22°C° 0 mm 3 mps 754 mmHg 64%
    14:00 +22°C° 0 mm 3 mps 753 mmHg 64%
    15:00 +22°C° 0 mm 3 mps 753 mmHg 64%
    16:00 +23°C° 0 mm 2 mps 753 mmHg 64%
    17:00 +21°C° 0 mm 2 mps 753 mmHg 67%
    18:00 +20°C° 0 mm 2 mps 754 mmHg 71%
    19:00 +19°C° 0 mm 2 mps 754 mmHg 74%
    20:00 +19°C° 0 mm 2 mps 754 mmHg 74%
    21:00 +18°C° 0 mm 3 mps 754 mmHg 73%
    22:00 +18°C° 0 mm 3 mps 755 mmHg 73%
    23:00 +18°C° 0.3 mm 3 mps 755 mmHg 75%

    Tomorrow, 21 October, Monday

    Time Temperature Precipitation Wind Pressure Humidity
    00:00 +18°C° 0.3 mm 2 mps 755 mmHg 78%
    01:00 +18°C° 0.3 mm 2 mps 755 mmHg 80%
    02:00 +18°C° 0.7 mm 3 mps 755 mmHg 82%
    03:00 +18°C° 0.7 mm 3 mps 754 mmHg 84%
    04:00 +17°C° 0.7 mm 3 mps 754 mmHg 87%
    05:00 +17°C° 0.7 mm 3 mps 754 mmHg 87%
    06:00 +17°C° 0.7 mm 3 mps 755 mmHg 87%
    07:00 +17°C° 0.7 mm 3 mps 755 mmHg 87%
    08:00 +18°C° 0.3 mm 3 mps 755 mmHg 83%
    09:00 +19°C° 0.3 mm 4 mps 755 mmHg 79%
    10:00 +21°C° 0.3 mm 4 mps 756 mmHg 75%
    11:00 +21°C° 0.1 mm 4 mps 756 mmHg 72%
    12:00 +22°C° 0.1 mm 3 mps 756 mmHg 70%
    13:00 +24°C° 0.1 mm 3 mps 756 mmHg 67%
    14:00 +24°C° 0.1 mm 3 mps 756 mmHg 69%
    15:00 +24°C° 0.1 mm 3 mps 756 mmHg 71%
    16:00 +24°C° 0.1 mm 2 mps 756 mmHg 72%
    17:00 +21°C° 0 mm 2 mps 756 mmHg 76%
    18:00 +20°C° 0 mm 2 mps 756 mmHg 80%
    19:00 +20°C° 0 mm 1 mps 756 mmHg 84%
    20:00 +20°C° 0 mm 1 mps 757 mmHg 84%
    21:00 +20°C° 0 mm 1 mps 757 mmHg 85%
    22:00 +20°C° 0 mm 1 mps 757 mmHg 85%
    23:00 +19°C° 0 mm 1 mps 757 mmHg 87%

    Day after tomorrow, 22 October, Tuesday

    Time Temperature Precipitation Wind Pressure Humidity
    00:00 +19°C° 0 mm 1 mps 757 mmHg 88%
    01:00 +19°C° 0 mm 1 mps 757 mmHg 89%
    02:00 +18°C° 0 mm 1 mps 757 mmHg 90%
    03:00 +18°C° 0 mm 1 mps 757 mmHg 90%
    04:00 +18°C° 0 mm 1 mps 757 mmHg 91%
    05:00 +18°C° 0 mm 1 mps 757 mmHg 91%
    06:00 +18°C° 0 mm 1 mps 757 mmHg 91%
    07:00 +16°C° 0 mm 1 mps 757 mmHg 91%
    08:00 +19°C° 0 mm 1 mps 757 mmHg 86%
    09:00 +20°C° 0 mm 1 mps 757 mmHg 81%
    10:00 +20°C° 0 mm 0 mps 757 mmHg 76%
    11:00 +22°C° 0 mm 1 mps 757 mmHg 73%
    12:00 +23°C° 0 mm 1 mps 757 mmHg 70%
    13:00 +24°C° 0 mm 1 mps 757 mmHg 66%
    14:00 +24°C° 0 mm 1 mps 756 mmHg 67%
    15:00 +24°C° 0 mm 1 mps 756 mmHg 67%
    16:00 +24°C° 0 mm 1 mps 756 mmHg 68%
    17:00 +23°C° 0 mm 1 mps 756 mmHg 73%
    18:00 +21°C° 0 mm 1 mps 756 mmHg 79%
    19:00 +18°C° 0 mm 0 mps 756 mmHg 84%
    20:00 +20°C° 0 mm 1 mps 756 mmHg 85%
    21:00 +19°C° 0 mm 1 mps 756 mmHg 86%
    22:00 +19°C° 0 mm 1 mps 756 mmHg 87%
    23:00 +19°C° 0 mm 1 mps 756 mmHg 87%

    23 October, Wednesday

    Time Temperature Precipitation Wind Pressure Humidity
    00:00 +18°C° 0 mm 1 mps 756 mmHg 87%
    01:00 +18°C° 0 mm 1 mps 756 mmHg 87%
    02:00 +18°C° 0 mm 1 mps 755 mmHg 87%
    03:00 +18°C° 0 mm 1 mps 755 mmHg 87%
    04:00 +18°C° 0 mm 1 mps 755 mmHg 86%
    05:00 +16°C° 0 mm 1 mps 755 mmHg 86%
    06:00 +16°C° 0 mm 1 mps 754 mmHg 86%
    07:00 +16°C° 0 mm 1 mps 754 mmHg 86%
    08:00 +19°C° 0 mm 1 mps 754 mmHg 80%
    09:00 +20°C° 0 mm 1 mps 754 mmHg 74%
    10:00 +22°C° 0 mm 1 mps 754 mmHg 67%
    11:00 +23°C° 0 mm 1 mps 754 mmHg 64%
    12:00 +24°C° 0 mm 1 mps 754 mmHg 61%
    13:00 +25°C° 0 mm 1 mps 754 mmHg 58%
    14:00 +24°C° 0 mm 1 mps 753 mmHg 60%
    15:00 +24°C° 0 mm 1 mps 753 mmHg 62%
    16:00 +24°C° 0 mm 1 mps 753 mmHg 63%
    17:00 +23°C° 0 mm 1 mps 753 mmHg 68%
    18:00 +21°C° 0 mm 1 mps 753 mmHg 72%
    19:00 +20°C° 0 mm 1 mps 753 mmHg 77%
    20:00 +19°C° 0 mm 1 mps 753 mmHg 78%
    21:00 +18°C° 0 mm 2 mps 753 mmHg 79%
    22:00 +18°C° 0 mm 2 mps 753 mmHg 80%
    23:00 +18°C° 0 mm 2 mps 753 mmHg 80%

    24 October, Thursday

    Time Temperature Precipitation Wind Pressure Humidity
    00:00 +18°C° 0 mm 1 mps 752 mmHg 80%
    01:00 +18°C° 0 mm 1 mps 752 mmHg 81%
    02:00 +18°C° 0 mm 1 mps 752 mmHg 80%
    03:00 +17°C° 0 mm 2 mps 752 mmHg 79%
    04:00 +17°C° 0 mm 2 mps 751 mmHg 79%
    05:00 +17°C° 0 mm 2 mps 751 mmHg 79%
    06:00 +17°C° 0 mm 2 mps 751 mmHg 79%
    07:00 +16°C° 0 mm 2 mps 751 mmHg 79%
    08:00 +17°C° 0 mm 2 mps 751 mmHg 76%
    09:00 +18°C° 0 mm 2 mps 751 mmHg 73%
    10:00 +20°C° 0 mm 1 mps 751 mmHg 70%
    11:00 +21°C° 0 mm 1 mps 751 mmHg 69%
    12:00 +21°C° 0 mm 1 mps 751 mmHg 67%
    13:00 +22°C° 0 mm 1 mps 751 mmHg 66%
    14:00 +21°C° 0 mm 1 mps 750 mmHg 67%
    15:00 +21°C° 0 mm 1 mps 750 mmHg 69%
    16:00 +21°C° 0 mm 1 mps 750 mmHg 70%
    17:00 +20°C° 0 mm 1 mps 750 mmHg 72%
    18:00 +20°C° 0 mm 1 mps 750 mmHg 74%
    19:00 +18°C° 0 mm 2 mps 750 mmHg 76%
    20:00 +18°C° 0 mm 2 mps 750 mmHg 76%
    21:00 +18°C° 0 mm 2 mps 750 mmHg 76%
    22:00 +18°C° 0 mm 3 mps 750 mmHg 76%
    23:00 +18°C° 0 mm 2 mps 750 mmHg 78%

    25 October, Friday

    Time Temperature Precipitation Wind Pressure Humidity
    00:00 +18°C° 0 mm 1 mps 750 mmHg 79%
    01:00 +18°C° 0 mm 1 mps 750 mmHg 80%
    02:00 +18°C° 0.5 mm 1 mps 750 mmHg 82%
    03:00 +17°C° 0.5 mm 2 mps 750 mmHg 85%
    04:00 +17°C° 0.5 mm 2 mps 750 mmHg 87%
    05:00 +16°C° 1.7 mm 2 mps 750 mmHg 87%
    06:00 +16°C° 1.7 mm 2 mps 750 mmHg 87%
    07:00 +16°C° 1.7 mm 2 mps 750 mmHg 88%
    08:00 +16°C° 0.5 mm 2 mps 750 mmHg 88%
    09:00 +17°C° 0.5 mm 2 mps 750 mmHg 88%
    10:00 +18°C° 0.5 mm 1 mps 750 mmHg 87%
    11:00 +18°C° 0.3 mm 1 mps 750 mmHg 87%
    12:00 +18°C° 0.3 mm 1 mps 750 mmHg 86%
    13:00 +18°C° 0.3 mm 2 mps 750 mmHg 85%
    14:00 +18°C° 0.1 mm 2 mps 750 mmHg 86%
    15:00 +17°C° 0.1 mm 2 mps 749 mmHg 87%
    16:00 +17°C° 0.1 mm 2 mps 749 mmHg 87%
    17:00 +17°C° 0.1 mm 2 mps 750 mmHg 87%
    18:00 +17°C° 0.1 mm 2 mps 750 mmHg 88%
    19:00 +18°C° 0.1 mm 1 mps 750 mmHg 88%
    20:00 +17°C° 0 mm 2 mps 750 mmHg 87%
    21:00 +17°C° 0 mm 2 mps 751 mmHg 85%
    22:00 +17°C° 0 mm 2 mps 751 mmHg 84%
    23:00 +17°C° 0 mm 2 mps 751 mmHg 83%
    Show more